This is the latest recevied weather packets stored in our database for station/object K6LCM-13. If no packets are shown the sender has not sent any weather packets the latest 10 day(s).
| Time | Temp. | Humidity | Pressure | Rain* | Wind** | Luminosity | Snow |
|---|---|---|---|---|---|---|---|
| 1777301212 | 14.44° C | 65% | 1015.7 hPa | 0 mm | - | - | - |
| 1777300672 | 14.44° C | 66% | 1015.5 hPa | 0 mm | - | - | - |
| 1777300131 | 13.89° C | 69% | 1015.5 hPa | 0 mm | - | - | - |
| 1777299592 | 13.33° C | 72% | 1015.3 hPa | 0 mm | - | - | - |
| 1777299051 | 12.78° C | 74% | 1015.4 hPa | 0 mm | - | - | - |
| 1777298511 | 12.22° C | 75% | 1015.4 hPa | 0 mm | - | - | - |
| 1777297971 | 12.22° C | 74% | 1015.3 hPa | 0 mm | - | - | - |
| 1777297432 | 11.67° C | 74% | 1015.3 hPa | 0 mm | - | - | - |
| 1777296891 | 11.67° C | 74% | 1015.1 hPa | 0 mm | - | - | - |
| 1777296351 | 11.67° C | 73% | 1015.1 hPa | 0 mm | - | - | - |
| 1777295811 | 12.22° C | 73% | 1014.9 hPa | 0 mm | - | - | - |
| 1777295271 | 12.22° C | 72% | 1015 hPa | 0 mm | - | - | - |
| 1777294732 | 11.67° C | 73% | 1014.9 hPa | 0 mm | - | - | - |
| 1777294191 | 11.67° C | 74% | 1014.8 hPa | 0 mm | - | - | - |
| 1777293651 | 11.11° C | 75% | 1014.7 hPa | 0 mm | - | - | - |
| 1777293111 | 11.11° C | 76% | 1014.7 hPa | 0 mm | - | - | - |
| 1777292572 | 10.56° C | 76% | 1014.7 hPa | 0 mm | - | - | - |
| 1777292031 | 10.56° C | 75% | 1014.7 hPa | 0 mm | - | - | - |
| 1777291492 | 10.56° C | 75% | 1014.6 hPa | 0 mm | - | - | - |
| 1777290951 | 10.56° C | 75% | 1014.5 hPa | 0 mm | - | - | - |
| 1777290412 | 11.11° C | 74% | 1014.6 hPa | 0 mm | - | - | - |
| 1777289871 | 11.11° C | 74% | 1014.7 hPa | 0 mm | - | - | - |
| 1777289332 | 11.67° C | 74% | 1014.7 hPa | 0 mm | - | - | - |
| 1777288791 | 11.67° C | 73% | 1014.8 hPa | 0 mm | - | - | - |
| 1777288251 | 12.22° C | 72% | 1014.7 hPa | 0 mm | - | - | - |
* Rain latest hour (hover to see other rain measurements)
** Current wind speed in m/s (hover to see current wind gust speed)